Location: Eitze
(52.9840°N, 9.6894°E)
Time: 16:38:32
(UTC+00:00)

BREEZE-M R/B - Pass Details

Date: 19 May 2025
Orbit: 537 x 26536 km, 49.1° (Epoch: 15 June)

Event Time Altitude Azimuth Distance (km) Brightness Sun altitude
Rises 19:48:42 0° 268° (W) 15,231 10.4 -4.2°
Reaches altitude 10° 20:06:44 10° 270° (W) 9,801 9.3 -6.2°
Maximum altitude 20:28:39 68° 194° (SSW) 1,552 4.4 -8.4°
Drops below altitude 10° 20:33:27 10° 111° (ESE) 2,398 5.0 -8.9°
Enters shadow 20:33:54 - 110° (ESE) 2,591 5.2 -8.9°
